Showing default

CENTAURI-9, 69924

Orbit data source: Space-Track

CENTAURI-9, 69924 is a payload satellite owned by Fleet Space (AU) in SSO that was launched on Tue, 07 Jul 2026 UTC via an FALCON 9 launch vehicle from the Air Force Western Test Range (AFWTR). Payload-class satellites include a variety of spacecraft equipped with specific instruments for various scientific and technological missions. These include communications satellites like Starlink; space stations such as the ISS; scientific satellites like the Hubble; Earth observation satellites from companies like Planet Labs, Umbra, and HawkEye 360; GPS; miniature CubeSats for education and research; and military/defense satellites.

Loading next visibility...
Identifier
69924, 2026-156BH
Orbit
SSO
Country
Flag of AUAU / AUS
Related business
Manufacturer
Terran Orbital
Mission
Operational spacecraft
Bus & Motor
CUBESAT 12U, Unknown motor
Mass
~25 kg wet, ~25 kg dry
Launch date (UTC)
2026-07-07 (2 months ago)
Launch vehicle
FALCON 9
Launch site
Air Force Western Test Range (AFWTR)
Object type
Payload
Rocket body
Debris
Shape & HBR
BOX+2 PAN, 14.5 m
Radar Cross Section
Medium (>0.1 m² and <1 m²)

Expand to show TLE details & history
Last TLE update: 11 hours ago

TLE from 11 hours ago
0 CENTAURI-9
1 69924U 26156BH  26237.16101283  .00000824  00000-0  86436-4 0  9997
2 69924  97.7469 136.8264 0008295   2.2789 357.8466 14.92179932  7289
Epoch: 2026-08-25T03:51Z
TLE epoch observation values (Epoch: 2026-08-25T03:51:51.508Z)
Latitude
-0.00006°
Longitude
105.42945°
Altitude
588.404 km
Speed
7.569 km/s
True Right ascension
09h 07m 18s
True Declination
0° 00' 00"
Sunlit
Object was in daylight at epoch
Visualization orbit readout
Latitude
Unknown
Longitude
Unknown
Altitude
Unknown
Speed
Unknown
Apparent Right ascension
Unknown
Apparent Declination
Unknown
Sunlit
N/A
Visualization observer readout
Local Sidereal Time
05:46:52
Azimuth
Unknown
Elevation
Unknown
Doppler factor
Unknown
Orbital elements
Apogee altitude
593.936 km
Perigee altitude
582.379 km
Semi-major axis
6,966.295 km
Eccentricity
0.00083
Inclination
97.7469°
RAAN
136.8264°
Arg. of periapsis
2.2789°
True anomaly
357.84302°
Mean anomaly
357.8466°
Eccentric anomaly
357.84481°
Mean motion
3.73285 °/min
Orbital period
96.44 mins
BSTAR
0.000086436
Loading maneuver chart data...
Computing Atmospheric mass density...
Loading historical data...
Loading historical data...
Loading historical data...
Loading historical data...
Loading historical data...
Loading historical data...
Loading historical data...

Documentation

Showing up to 5 results
|